カタログに戻る

CZ-6A DEB

運用中PO
NORAD 60891·DEBRIS·🇨🇳 China

打ち上げ Aug 6, 2024 から Taiyuan Satellite Launch Center

Loading…

次のパス (今後24時間)

TLE

最新Source: Space-Track

元期: Sep 14, 2026, 09:09 UTC

1 60891U 24140KW  26257.38183733  .00000519  00000-0  27150-3 0  9996
2 60891  89.3280 295.0420 0083408 290.9418  68.2855 14.11345677106644

AllMySatでCZ-6A DEBをリアルタイム追跡

Download on the App Store